This is the latest recevied weather packets stored in our database for station/object W4MLN-1. If no packets are shown the sender has not sent any weather packets the latest 10 day(s).
| Time | Temp. | Humidity | Pressure | Rain* | Wind** | Luminosity | Snow |
|---|---|---|---|---|---|---|---|
| 1777895943 | 1.11° C | 99% | 1016.7 hPa | 0 mm | - | 48 W/m² | - |
| 1777895644 | 1.11° C | 99% | 1016.9 hPa | 0 mm | - | 47 W/m² | - |
| 1777895343 | 0.56° C | 99% | 1016.9 hPa | 0 mm | - | 56 W/m² | - |
| 1777895029 | 0.56° C | 100% | 1016.7 hPa | 0 mm | - | 67 W/m² | - |
| 1777894729 | 0° C | 100% | 1016.6 hPa | 0 mm | - | 78 W/m² | - |
| 1777894430 | 0° C | 100% | 1016.5 hPa | 0 mm | - | 48 W/m² | - |
| 1777894129 | -0.56° C | 100% | 1016.6 hPa | 0 mm | - | 39 W/m² | - |
| 1777893829 | -0.56° C | 100% | 1016.5 hPa | 0 mm | - | 36 W/m² | - |
| 1777893529 | -0.56° C | 100% | 1016.5 hPa | 0 mm | - | 33 W/m² | - |
| 1777893215 | -0.56° C | 100% | 1016.5 hPa | 0 mm | - | 29 W/m² | - |
| 1777892915 | -0.56° C | 100% | 1016.5 hPa | 0 mm | - | 21 W/m² | - |
| 1777892614 | -0.56° C | 100% | 1016.4 hPa | 0 mm | - | 19 W/m² | - |
| 1777892314 | -0.56° C | 100% | 1016.4 hPa | 0 mm | - | 16 W/m² | - |
| 1777892014 | -0.56° C | 100% | 1016.4 hPa | 0 mm | - | 14 W/m² | - |
| 1777891714 | -0.56° C | 99% | 1016.5 hPa | 0 mm | - | 12 W/m² | - |
| 1777891400 | -0.56° C | 100% | 1016.6 hPa | 0 mm | - | 9 W/m² | - |
| 1777891101 | -0.56° C | 99% | 1016.6 hPa | 0 mm | - | 6 W/m² | - |
| 1777890799 | -1.11° C | 99% | 1016.4 hPa | 0 mm | - | 4 W/m² | - |
| 1777890500 | -0.56° C | 99% | 1016.4 hPa | 0 mm | - | 2 W/m² | - |
| 1777890200 | -0.56° C | 99% | 1016.5 hPa | 0 mm | - | 0 W/m² | - |
| 1777889899 | -0.56° C | 99% | 1016.6 hPa | 0 mm | - | 0 W/m² | - |
| 1777889599 | -0.56° C | 99% | 1016.6 hPa | 0 mm | - | 0 W/m² | - |
| 1777889298 | -0.56° C | 99% | 1016.5 hPa | 0 mm | - | 0 W/m² | - |
| 1777888999 | -0.56° C | 99% | 1016.5 hPa | 0 mm | - | 0 W/m² | - |
| 1777888698 | -0.56° C | 99% | 1016.5 hPa | 0 mm | - | 0 W/m² | - |
* Rain latest hour (hover to see other rain measurements)
** Current wind speed in m/s (hover to see current wind gust speed)